Date String (YYYY-MM-DD hh:mm:ss) UTC,Instrument flags,Ambient pressure (hPa),Sample flow (lpm),Bypass flow (lpm),Sample temperature (°C),Ambient temperature (°C),ASC tube jacket temperature (°C),LED temperature (°C),Box temperature (°C),Sample RH (%),Span deviation,Mass concentration (μg/m³),Mass concentration (μg/m³),Mass concentration (μg/m³)
DateTimeUTC,F1_M11,P_M11,Q1_M11,Q2_M11,T1_M11,T2_M11,T3_M11,T4_M11,T5_M11,U1_M11,ZSPAN_M11,X0_M11,X2_M11,X1_M11
2021-11-14 20:00:00,,0825.9,5.01,0.00,26.6,25.6,00.0,35.6,28.4,14.0,0000.0,0002.25,0000.85,0000.58
2021-11-14 20:01:00,,0825.7,5.01,0.00,26.6,25.7,00.0,35.6,28.4,14.0,0000.0,0003.53,0000.89,0000.58
2021-11-14 20:02:00,,0825.6,4.99,0.00,26.6,25.7,00.0,35.6,28.4,14.0,0000.0,0003.74,0000.96,0000.58
2021-11-14 20:03:00,,0825.7,5.00,0.00,26.6,25.6,00.0,35.6,28.4,13.9,0000.0,0003.87,0001.00,0000.58
2021-11-14 20:04:00,,0825.7,5.01,0.00,26.6,25.7,00.0,35.6,28.4,13.9,0000.0,0003.95,0001.03,0000.57
2021-11-14 20:05:00,,0825.5,5.00,0.00,26.6,25.6,00.0,35.6,28.4,13.9,0000.0,0003.99,0001.06,0000.58
2021-11-14 20:06:00,,0825.5,5.00,0.00,26.6,25.7,00.0,35.6,28.4,13.8,0000.0,0004.01,0001.05,0000.58
2021-11-14 20:07:00,,0825.4,5.00,0.00,26.6,25.7,00.0,35.6,28.4,13.8,0000.0,0004.02,0001.04,0000.57
2021-11-14 20:08:00,,0825.4,4.99,0.00,26.6,25.7,00.0,35.6,28.4,13.8,0000.0,0004.04,0001.08,0000.58
2021-11-14 20:09:00,,0825.3,5.00,0.00,26.6,25.8,00.0,35.6,28.5,13.8,0000.0,0003.97,0001.07,0000.59
2021-11-14 20:10:00,,0825.3,4.99,0.00,26.6,25.8,00.0,35.6,28.4,13.8,0000.0,0004.02,0001.11,0000.60
2021-11-14 20:11:00,,0825.3,5.00,0.00,26.6,25.8,00.0,35.6,28.5,13.8,0000.0,0003.68,0001.14,0000.60
2021-11-14 20:12:00,,0825.3,5.01,0.00,26.6,25.8,00.0,35.6,28.5,13.8,0000.0,0002.45,0001.17,0000.61
2021-11-14 20:13:00,,0825.3,5.01,0.00,26.6,25.8,00.0,35.6,28.5,13.7,0000.0,0002.31,0001.13,0000.61
2021-11-14 20:14:00,,0825.4,4.99,0.00,26.6,25.8,00.0,35.6,28.5,13.8,0000.0,0002.24,0001.12,0000.62
2021-11-14 20:15:00,,0825.4,4.99,0.00,26.6,25.7,00.0,35.6,28.5,13.7,0000.0,0002.25,0001.12,0000.64
2021-11-14 20:16:00,,0825.3,5.00,0.00,26.6,25.7,00.0,35.6,28.4,13.7,0000.0,0002.33,0001.14,0000.64
2021-11-14 20:17:00,,0825.2,5.00,0.00,26.6,25.7,00.0,35.6,28.5,13.7,0000.0,0003.55,0001.21,0000.65
2021-11-14 20:18:00,,0825.2,5.00,0.00,26.6,25.7,00.0,35.6,28.4,13.7,0000.0,0003.93,0001.28,0000.66
2021-11-14 20:19:00,,0825.3,5.00,0.00,26.6,25.7,00.0,35.6,28.4,13.7,0000.0,0004.20,0001.31,0000.67
2021-11-14 20:20:00,,0825.3,5.01,0.00,26.6,25.7,00.0,35.6,28.4,13.7,0000.0,0004.49,0001.38,0000.67
2021-11-14 20:21:00,,0825.4,4.99,0.00,26.6,25.7,00.0,35.6,28.4,13.7,0000.0,0004.67,0001.41,0000.67
2021-11-14 20:22:00,,0825.5,5.01,0.00,26.6,25.7,00.0,35.6,28.4,13.7,0000.0,0004.95,0001.41,0000.66
2021-11-14 20:23:00,,0825.4,5.01,0.00,26.6,25.7,00.0,35.6,28.3,13.8,0000.0,0004.93,0001.38,0000.66
2021-11-14 20:24:00,,0825.3,4.98,0.00,26.6,25.7,00.0,35.6,28.4,13.7,0000.0,0004.94,0001.38,0000.65
2021-11-14 20:25:00,,0825.4,5.00,0.00,26.6,25.7,00.0,35.6,28.4,13.7,0000.0,0005.15,0001.45,0000.64
2021-11-14 20:26:00,,0825.4,5.01,0.00,26.6,25.7,00.0,35.6,28.4,13.7,0000.0,0005.27,0001.49,0000.63
2021-11-14 20:27:00,,0825.4,4.99,0.00,26.6,25.7,00.0,35.6,28.4,13.7,0000.0,0005.15,0001.45,0000.63
2021-11-14 20:28:00,,0825.4,5.00,0.00,26.6,25.7,00.0,35.6,28.5,13.7,0000.0,0004.22,0001.39,0000.62
2021-11-14 20:29:00,,0825.4,4.99,0.00,26.6,25.7,00.0,35.6,28.4,13.6,0000.0,0003.53,0001.32,0000.61
2021-11-14 20:30:00,,0825.4,5.01,0.00,26.6,25.7,00.0,35.6,28.4,13.6,0000.0,0003.33,0001.25,0000.60
2021-11-14 20:31:00,,0825.3,5.00,0.00,26.6,25.7,00.0,35.6,28.4,13.5,0000.0,0003.04,0001.20,0000.59
2021-11-14 20:32:00,,0825.1,5.00,0.00,26.6,25.7,00.0,35.6,28.4,13.5,0000.0,0002.78,0001.15,0000.58
2021-11-14 20:33:00,,0825.3,5.01,0.00,26.6,25.7,00.0,35.6,28.4,13.5,0000.0,0002.83,0001.20,0000.58
2021-11-14 20:34:00,,0825.4,4.99,0.00,26.6,25.6,00.0,35.6,28.4,13.5,0000.0,0002.77,0001.19,0000.58
2021-11-14 20:35:00,,0825.3,5.00,0.00,26.6,25.7,00.0,35.6,28.4,13.5,0000.0,0002.75,0001.19,0000.58
2021-11-14 20:36:00,,0825.3,5.01,0.00,26.6,25.6,00.0,35.6,28.4,13.5,0000.0,0002.68,0001.14,0000.58
2021-11-14 20:37:00,,0825.3,5.00,0.00,26.6,25.6,00.0,35.6,28.4,13.4,0000.0,0002.62,0001.10,0000.58
2021-11-14 20:38:00,,0825.3,4.99,0.00,26.6,25.6,00.0,35.6,28.4,13.5,0000.0,0002.68,0001.12,0000.58
2021-11-14 20:39:00,,0825.4,5.00,0.00,26.6,25.6,00.0,35.6,28.4,13.4,0000.0,0002.78,0001.15,0000.57
2021-11-14 20:40:00,,0825.3,5.00,0.00,26.5,25.6,00.0,35.6,28.4,13.5,0000.0,0002.93,0001.21,0000.58
2021-11-14 20:41:00,,0825.3,4.99,0.00,26.6,25.6,00.0,35.6,28.4,13.5,0000.0,0002.90,0001.20,0000.58
2021-11-14 20:42:00,,0825.4,5.01,0.00,26.6,25.6,00.0,35.6,28.4,13.5,0000.0,0002.90,0001.22,0000.58
2021-11-14 20:43:00,,0825.5,4.99,0.00,26.6,25.6,00.0,35.6,28.4,13.5,0000.0,0003.74,0001.30,0000.59
2021-11-14 20:44:00,,0825.5,5.00,0.00,26.5,25.6,00.0,35.6,28.3,13.5,0000.0,0004.31,0001.26,0000.59
2021-11-14 20:45:00,,0825.4,5.01,0.00,26.6,25.7,00.0,35.6,28.4,13.5,0000.0,0004.29,0001.29,0000.60
2021-11-14 20:46:00,,0825.5,5.00,0.00,26.6,25.7,00.0,35.6,28.4,13.5,0000.0,0004.36,0001.31,0000.61
2021-11-14 20:47:00,,0825.6,4.99,0.00,26.6,25.7,00.0,35.6,28.4,13.4,0000.0,0005.33,0001.34,0000.62
2021-11-14 20:48:00,,0825.6,5.00,0.00,26.6,25.7,00.0,35.6,28.4,13.4,0000.0,0005.65,0001.35,0000.61
2021-11-14 20:49:00,,0825.5,5.01,0.00,26.6,25.7,00.0,35.6,28.3,13.4,0000.0,0005.91,0001.43,0000.62
2021-11-14 20:50:00,,0825.5,4.99,0.00,26.6,25.7,00.0,35.6,28.4,13.4,0000.0,0005.88,0001.44,0000.62
2021-11-14 20:51:00,,0825.6,5.00,0.00,26.6,25.7,00.0,35.6,28.4,13.4,0000.0,0006.00,0001.47,0000.64
2021-11-14 20:52:00,,0825.6,5.01,0.00,26.6,25.7,00.0,35.6,28.4,13.5,0000.0,0006.11,0001.53,0000.65
2021-11-14 20:53:00,,0825.6,5.00,0.00,26.6,25.8,00.0,35.6,28.4,13.5,0000.0,0005.95,0001.50,0000.65
2021-11-14 20:54:00,,0825.5,4.99,0.00,26.6,25.7,00.0,35.6,28.4,13.4,0000.0,0005.45,0001.43,0000.65
2021-11-14 20:55:00,,0825.5,5.01,0.00,26.6,25.7,00.0,35.6,28.4,13.4,0000.0,0005.69,0001.40,0000.65
2021-11-14 20:56:00,,0825.4,5.00,0.00,26.6,25.7,00.0,35.6,28.4,13.4,0000.0,0005.69,0001.38,0000.65
2021-11-14 20:57:00,,0825.3,4.99,0.00,26.6,25.7,00.0,35.6,28.4,13.4,0000.0,0005.63,0001.37,0000.65
2021-11-14 20:58:00,,0825.5,5.00,0.00,26.6,25.7,00.0,35.6,28.5,13.4,0000.0,0004.86,0001.32,0000.65
2021-11-14 20:59:00,,0825.5,4.99,0.00,26.6,25.7,00.0,35.6,28.5,13.4,0000.0,0005.38,0001.34,0000.65
